This demonstration page uses our WeatherBlox Daily Observations layout. Learn more.

Left ArrowRight Arrow

Hourly Observations for December 31, 2021

Temp ( °F °C ) Dew Point ( °F °C ) Humidity (%) Winds ( mph kmh ) Pressure ( in mb ) Visibility ( mi km ) Precip ( " mm )
12:15 am 00:15 Cloudy with Mist and Fog 52 11 52 11 100 100 Calm 29.93 1014 3 4 0.00 0.00
12:35 am 00:35 Cloudy with Mist and Fog 52 11 52 11 100 100 Calm 29.94 1014 3 5 0.00 0.00
12:55 am 00:55 Cloudy with Mist and Fog 52 11 52 11 100 100 Calm 29.94 1014 4 6 0.00 0.00
1:15 am 01:15 Cloudy with Mist and Fog 52 11 52 11 100 100 Calm 29.94 1014 3 4 0.00 0.00
1:35 am 01:35 Cloudy with Mist and Fog 52 11 52 11 100 100 Calm 29.93 1014 2 3 0.00 0.00
1:55 am 01:55 Cloudy with Mist and Fog 52 11 52 11 100 100 Calm 29.93 1014 1 2 0.00 0.00
2:15 am 02:15 Cloudy with Mist and Fog 50 10 50 10 100 100 Calm 29.95 1014 1 1 0.00 0.00
2:35 am 02:35 Cloudy with Mist and Fog 50 10 50 10 100 100 Calm 29.96 1014 1 1 0.00 0.00
2:55 am 02:55 Cloudy with Mist and Fog 50 10 50 10 100 100 Calm 29.95 1014 1 1 0.00 0.00
3:15 am 03:15 Cloudy with Mist and Fog 50 10 50 10 100 100 Calm 29.94 1014 1 2 0.00 0.00
3:35 am 03:35 Cloudy with Mist and Fog 52 11 52 11 100 100 Calm 29.93 1014 1 2 0.00 0.00
3:55 am 03:55 Cloudy with Mist and Fog 50 10 50 10 100 100 Calm 29.94 1014 1 1 0.00 0.00
4:15 am 04:15 Cloudy with Mist and Fog 50 10 50 10 100 100 Calm 29.94 1014 1 1 0.00 0.00
4:35 am 04:35 Cloudy with Mist and Fog 50 10 50 10 100 100 Calm 29.95 1014 2 2 0.00 0.00
4:55 am 04:55 Cloudy with Mist and Fog 50 10 50 10 100 100 Calm 29.95 1014 3 5 0.00 0.00
5:15 am 05:15 Cloudy with Mist and Fog 50 10 50 10 100 100 Calm 29.96 1014 4 6 0.00 0.00
5:35 am 05:35 Cloudy 50 10 50 10 100 100 Calm 29.95 1014 7 11 0.00 0.00
5:55 am 05:55 Cloudy with Mist and Fog 50 10 50 10 100 100 S 3 6 29.96 1014 5 8 0.00 0.00
6:15 am 06:15 Cloudy with Mist and Fog 50 10 50 10 100 100 S 5 7 29.96 1014 5 8 0.00 0.00
6:35 am 06:35 Cloudy with Mist and Fog 50 10 50 10 100 100 SW 6 9 29.96 1014 5 8 0.00 0.00
6:55 am 06:55 Cloudy with Mist and Fog 50 10 50 10 100 100 SSW 7 11 29.96 1014 5 8 0.00 0.00
7:15 am 07:15 Cloudy with Mist and Fog 50 10 50 10 100 100 S 6 9 29.96 1014 5 8 0.00 0.00
7:35 am 07:35 Cloudy with Mist and Fog 50 10 50 10 100 100 SSW 8 13 29.97 1015 4 6 0.00 0.00
7:55 am 07:55 Cloudy with Mist and Fog 50 10 50 10 100 100 S 5 7 29.96 1014 3 5 0.00 0.00
8:15 am 08:15 Cloudy with Mist and Fog 50 10 50 10 100 100 SSW 5 7 29.98 1015 2 3 0.00 0.00
8:35 am 08:35 Cloudy with Mist and Fog 50 10 50 10 100 100 SSW 3 6 29.98 1015 2 3 0.00 0.00
8:55 am 08:55 Cloudy with Mist and Fog 50 10 50 10 100 100 SSW 8 13 29.99 1015 3 5 0.00 0.00
9:15 am 09:15 Cloudy with Mist and Fog 50 10 50 10 100 100 SSW 5 7 30.00 1016 3 4 0.00 0.00
9:35 am 09:35 Cloudy with Mist and Fog 50 10 50 10 100 100 SW 7 11 30.01 1016 3 5 0.00 0.00
9:55 am 09:55 Cloudy with Mist and Fog 52 11 52 11 100 100 SSW 5 7 30.00 1016 3 4 0.00 0.00
10:15 am 10:15 Cloudy with Mist and Fog 52 11 52 11 100 100 S 3 6 29.99 1016 2 3 0.00 0.00
10:35 am 10:35 Cloudy with Mist and Fog 52 11 52 11 100 100 S 3 6 29.98 1015 5 8 0.00 0.00
10:55 am 10:55 Cloudy 54 12 54 12 100 100 SSW 7 11 29.98 1015 10 16 0.00 0.00
11:15 am 11:15 Cloudy 54 12 54 12 100 100 S 7 11 29.96 1015 10 16 0.00 0.00
11:35 am 11:35 Cloudy 54 12 54 12 100 100 S 8 13 29.95 1014 10 16 0.00 0.00
11:55 am 11:55 Cloudy 54 12 54 12 100 100 SSW 8 13 29.94 1014 10 16 0.00 0.00
12:15 pm 12:15 Cloudy 55 13 54 12 94 94 S 8 13 29.93 1014 10 16 0.00 0.00
12:35 pm 12:35 Cloudy 55 13 54 12 94 94 S 7 11 29.92 1013 10 16 0.00 0.00
12:55 pm 12:55 Cloudy 57 14 54 12 88 88 S 8 13 29.91 1013 10 16 0.00 0.00
1:15 pm 13:15 Cloudy 55 13 54 12 94 94 S 8 13 29.91 1013 10 16 0.00 0.00
1:35 pm 13:35 Mostly Cloudy 59 15 54 12 82 82 S 8 13 29.90 1012 10 16 0.00 0.00
1:55 pm 13:55 Partly Cloudy 59 15 52 11 77 77 S 7 11 29.90 1012 10 16 0.00 0.00
2:15 pm 14:15 Sunny 57 14 52 11 82 82 S 7 11 29.89 1012 10 16 0.00 0.00
2:35 pm 14:35 Sunny 59 15 52 11 77 77 S 9 15 29.88 1012 10 16 0.00 0.00
2:55 pm 14:55 Sunny 59 15 54 12 82 82 S 7 11 29.88 1012 10 16 0.00 0.00
3:15 pm 15:15 Sunny 59 15 54 12 82 82 SSW 5 7 29.88 1012 10 16 0.00 0.00
3:35 pm 15:35 Sunny 59 15 54 12 82 82 SSW 8 13 29.89 1012 10 16 0.00 0.00
3:55 pm 15:55 Sunny 59 15 54 12 82 82 S 10 17 29.88 1012 10 16 0.00 0.00
4:15 pm 16:15 Sunny 59 15 54 12 82 82 S 5 7 29.88 1012 10 16 0.00 0.00
4:35 pm 16:35 Sunny 59 15 54 12 82 82 S 7 11 29.89 1012 10 16 0.00 0.00
4:55 pm 16:55 Sunny 57 14 54 12 88 88 S 9 15 29.88 1012 10 16 0.00 0.00
5:15 pm 17:15 Clear 57 14 54 12 88 88 S 9 15 29.87 1012 10 16 0.00 0.00
5:35 pm 17:35 Clear 57 14 54 12 88 88 S 8 13 29.88 1012 10 16 0.00 0.00
5:55 pm 17:55 Clear 57 14 54 12 88 88 S 6 9 29.88 1012 10 16 0.00 0.00
6:15 pm 18:15 Clear 55 13 54 12 94 94 SSW 3 6 29.89 1012 10 16 0.00 0.00
6:35 pm 18:35 Partly Cloudy 57 14 54 12 88 88 Calm 29.90 1013 10 16 0.00 0.00
6:55 pm 18:55 Mostly Cloudy 55 13 54 12 94 94 Calm 29.90 1013 10 16 0.00 0.00
7:15 pm 19:15 Cloudy 57 14 54 12 88 88 SE 3 6 29.90 1013 10 16 0.00 0.00
7:35 pm 19:35 Cloudy 57 14 54 12 88 88 SSE 5 7 29.90 1013 10 16 0.00 0.00
7:55 pm 19:55 Cloudy 55 13 54 12 94 94 SE 5 7 29.90 1013 10 16 0.00 0.00
8:15 pm 20:15 Cloudy 55 13 54 12 94 94 SE 5 7 29.89 1012 10 16 0.00 0.00
8:35 pm 20:35 Cloudy 55 13 54 12 94 94 SE 5 7 29.88 1012 10 16 0.00 0.00
8:55 pm 20:55 Cloudy 55 13 54 12 94 94 S 7 11 29.89 1012 10 16 0.00 0.00
9:15 pm 21:15 Cloudy 55 13 54 12 94 94 WSW 6 9 29.91 1013 10 16 0.00 0.00
9:35 pm 21:35 Cloudy with Light Rain 55 13 55 13 100 100 SSW 6 9 29.90 1013 10 16 0.00 0.00
9:55 pm 21:55 Cloudy with Light Rain 55 13 55 13 100 100 Calm 29.89 1012 10 16 0.00 0.00
10:15 pm 22:15 Cloudy 54 12 54 12 100 100 SSW 5 7 29.89 1012 10 16 0.00 0.00
10:35 pm 22:35 Cloudy with Drizzle 55 13 55 13 100 100 SSE 5 7 29.88 1012 10 16 0.00 0.00
10:55 pm 22:55 Cloudy 55 13 55 13 100 100 S 5 7 29.88 1012 10 16 0.00 0.00
11:15 pm 23:15 Cloudy with Light Rain 55 13 55 13 100 100 S 3 6 29.88 1012 10 16 0.00 0.00
11:35 pm 23:35 Cloudy 55 13 55 13 100 100 Calm 29.87 1012 10 16 0.00 0.00
11:55 pm 23:55 Cloudy 55 13 55 13 100 100 SE 5 7 29.85 1011 10 16 0.00 0.00

Powered by AerisWeather